When you browse on this site, cookies collect data to enhance your experience and personalize the content and advertising you see.
Visit our Privacy Policy to learn more. By continuing to use the site, you agree to this use of cookies and data.
  • In Schweiz
  • Länderverzeichnis
  • Für 7 Tage
  • Wassertemperatur
  • Satellitenkarten
  • Wetterkarte
  • Widgets
  • user-avatar
    Anmelden

    Stündliche Wetter Eisenstadt

    Heute, 23 Mai, Donnerstag

    Zeit Temperatur Niederschläge Wind Luftdruck Luftfeuchtigkeit
    00:00 +12°C° 0.5 mm 2 m/S 721 mmHg 92%
    01:00 +12°C° 0.5 mm 2 m/S 722 mmHg 92%
    02:00 +10°C° 0.4 mm 2 m/S 722 mmHg 92%
    03:00 +10°C° 0.4 mm 3 m/S 722 mmHg 91%
    04:00 +10°C° 0.4 mm 3 m/S 722 mmHg 91%
    05:00 +11°C° 0.1 mm 3 m/S 722 mmHg 88%
    06:00 +11°C° 0.1 mm 3 m/S 722 mmHg 86%
    07:00 +12°C° 0.1 mm 4 m/S 722 mmHg 83%
    08:00 +13°C° 0 mm 4 m/S 723 mmHg 75%
    09:00 +14°C° 0 mm 5 m/S 723 mmHg 66%
    10:00 +16°C° 0 mm 5 m/S 723 mmHg 58%
    11:00 +17°C° 0 mm 5 m/S 723 mmHg 55%
    12:00 +17°C° 0 mm 5 m/S 723 mmHg 52%
    13:00 +19°C° 0 mm 5 m/S 723 mmHg 49%
    14:00 +19°C° 0 mm 5 m/S 722 mmHg 50%
    15:00 +19°C° 0 mm 5 m/S 722 mmHg 51%
    16:00 +17°C° 0 mm 6 m/S 722 mmHg 52%
    17:00 +16°C° 0 mm 5 m/S 722 mmHg 56%
    18:00 +14°C° 0 mm 4 m/S 722 mmHg 59%
    19:00 +12°C° 0 mm 4 m/S 722 mmHg 63%
    20:00 +12°C° 0 mm 3 m/S 722 mmHg 65%
    21:00 +11°C° 0 mm 3 m/S 722 mmHg 68%
    22:00 +10°C° 0 mm 2 m/S 723 mmHg 70%
    23:00 +9°C° 0 mm 2 m/S 723 mmHg 72%

    Morgen, 24 Mai, Freitag

    Zeit Temperatur Niederschläge Wind Luftdruck Luftfeuchtigkeit
    00:00 +9°C° 0 mm 2 m/S 722 mmHg 73%
    01:00 +8°C° 0 mm 2 m/S 722 mmHg 74%
    02:00 +8°C° 0 mm 2 m/S 722 mmHg 74%
    03:00 +8°C° 0 mm 2 m/S 722 mmHg 74%
    04:00 +8°C° 0 mm 2 m/S 722 mmHg 74%
    05:00 +10°C° 0 mm 2 m/S 722 mmHg 69%
    06:00 +12°C° 0 mm 2 m/S 722 mmHg 64%
    07:00 +14°C° 0 mm 2 m/S 722 mmHg 59%
    08:00 +16°C° 0 mm 3 m/S 722 mmHg 54%
    09:00 +17°C° 0 mm 3 m/S 722 mmHg 50%
    10:00 +19°C° 0 mm 3 m/S 722 mmHg 45%
    11:00 +19°C° 0 mm 3 m/S 722 mmHg 43%
    12:00 +20°C° 0 mm 3 m/S 721 mmHg 42%
    13:00 +21°C° 0 mm 3 m/S 721 mmHg 40%
    14:00 +20°C° 0 mm 3 m/S 721 mmHg 42%
    15:00 +20°C° 0 mm 3 m/S 720 mmHg 44%
    16:00 +20°C° 0 mm 3 m/S 720 mmHg 46%
    17:00 +18°C° 0 mm 2 m/S 720 mmHg 55%
    18:00 +17°C° 0 mm 2 m/S 720 mmHg 64%
    19:00 +15°C° 0 mm 1 m/S 719 mmHg 73%
    20:00 +14°C° 0 mm 1 m/S 720 mmHg 74%
    21:00 +13°C° 0 mm 1 m/S 720 mmHg 75%
    22:00 +12°C° 0 mm 1 m/S 720 mmHg 76%
    23:00 +12°C° 0 mm 1 m/S 720 mmHg 74%

    übermorgen, 25 Mai, Samstag

    Zeit Temperatur Niederschläge Wind Luftdruck Luftfeuchtigkeit
    00:00 +11°C° 0 mm 1 m/S 720 mmHg 73%
    01:00 +11°C° 0 mm 1 m/S 720 mmHg 72%
    02:00 +11°C° 0 mm 1 m/S 720 mmHg 72%
    03:00 +11°C° 0 mm 1 m/S 720 mmHg 72%
    04:00 +11°C° 0 mm 1 m/S 720 mmHg 72%
    05:00 +12°C° 0 mm 1 m/S 720 mmHg 68%
    06:00 +14°C° 0 mm 1 m/S 721 mmHg 64%
    07:00 +16°C° 0 mm 1 m/S 721 mmHg 60%
    08:00 +19°C° 0 mm 1 m/S 721 mmHg 56%
    09:00 +20°C° 0 mm 1 m/S 721 mmHg 52%
    10:00 +22°C° 0 mm 1 m/S 721 mmHg 48%
    11:00 +22°C° 0 mm 1 m/S 721 mmHg 47%
    12:00 +23°C° 0 mm 1 m/S 721 mmHg 45%
    13:00 +24°C° 0 mm 1 m/S 721 mmHg 44%
    14:00 +24°C° 0 mm 1 m/S 721 mmHg 45%
    15:00 +24°C° 0 mm 1 m/S 720 mmHg 46%
    16:00 +24°C° 0 mm 1 m/S 720 mmHg 47%
    17:00 +22°C° 0.1 mm 1 m/S 720 mmHg 55%
    18:00 +21°C° 0.1 mm 1 m/S 720 mmHg 63%
    19:00 +19°C° 0.1 mm 1 m/S 720 mmHg 72%
    20:00 +18°C° 0.4 mm 1 m/S 720 mmHg 76%
    21:00 +16°C° 0.4 mm 1 m/S 720 mmHg 80%
    22:00 +15°C° 0.4 mm 1 m/S 720 mmHg 84%
    23:00 +15°C° 0.8 mm 1 m/S 720 mmHg 85%

    26 Mai, Sonntag

    Zeit Temperatur Niederschläge Wind Luftdruck Luftfeuchtigkeit
    00:00 +14°C° 0.8 mm 1 m/S 720 mmHg 87%
    01:00 +14°C° 0.8 mm 1 m/S 720 mmHg 89%
    02:00 +14°C° 0.2 mm 1 m/S 720 mmHg 88%
    03:00 +14°C° 0.2 mm 1 m/S 720 mmHg 88%
    04:00 +13°C° 0.2 mm 1 m/S 719 mmHg 87%
    05:00 +15°C° 0 mm 1 m/S 720 mmHg 83%
    06:00 +16°C° 0 mm 2 m/S 720 mmHg 80%
    07:00 +17°C° 0 mm 2 m/S 720 mmHg 76%
    08:00 +18°C° 0.1 mm 2 m/S 721 mmHg 72%
    09:00 +20°C° 0.1 mm 2 m/S 721 mmHg 68%
    10:00 +21°C° 0.1 mm 3 m/S 721 mmHg 64%
    11:00 +21°C° 0.8 mm 2 m/S 721 mmHg 65%
    12:00 +21°C° 0.8 mm 2 m/S 721 mmHg 67%
    13:00 +21°C° 0.8 mm 2 m/S 720 mmHg 69%
    14:00 +22°C° 1.2 mm 1 m/S 720 mmHg 69%
    15:00 +22°C° 1.2 mm 1 m/S 720 mmHg 70%
    16:00 +22°C° 1.2 mm 1 m/S 720 mmHg 70%
    17:00 +21°C° 0.6 mm 1 m/S 720 mmHg 73%
    18:00 +20°C° 0.6 mm 1 m/S 720 mmHg 77%
    19:00 +17°C° 0.6 mm 0 m/S 720 mmHg 80%
    20:00 +18°C° 0 mm 1 m/S 721 mmHg 82%
    21:00 +16°C° 0 mm 1 m/S 721 mmHg 84%
    22:00 +15°C° 0 mm 1 m/S 721 mmHg 86%
    23:00 +14°C° 0 mm 1 m/S 721 mmHg 87%

    27 Mai, Montag

    Zeit Temperatur Niederschläge Wind Luftdruck Luftfeuchtigkeit
    00:00 +13°C° 0 mm 1 m/S 721 mmHg 88%
    01:00 +13°C° 0 mm 2 m/S 721 mmHg 89%
    02:00 +12°C° 0 mm 1 m/S 720 mmHg 89%
    03:00 +12°C° 0 mm 1 m/S 720 mmHg 89%
    04:00 +12°C° 0 mm 1 m/S 720 mmHg 89%
    05:00 +13°C° 0 mm 1 m/S 720 mmHg 86%
    06:00 +14°C° 0 mm 1 m/S 720 mmHg 82%
    07:00 +15°C° 0 mm 1 m/S 720 mmHg 78%
    08:00 +16°C° 0 mm 1 m/S 720 mmHg 75%
    09:00 +18°C° 0 mm 1 m/S 720 mmHg 71%
    10:00 +19°C° 0 mm 1 m/S 720 mmHg 68%
    11:00 +19°C° 0.1 mm 1 m/S 720 mmHg 67%
    12:00 +18°C° 0.1 mm 2 m/S 719 mmHg 66%
    13:00 +19°C° 0.1 mm 2 m/S 719 mmHg 65%
    14:00 +18°C° 0.2 mm 2 m/S 718 mmHg 72%
    15:00 +16°C° 0.2 mm 2 m/S 718 mmHg 80%
    16:00 +15°C° 0.2 mm 1 m/S 717 mmHg 87%
    17:00 +15°C° 0.1 mm 1 m/S 717 mmHg 89%
    18:00 +14°C° 0.1 mm 1 m/S 717 mmHg 91%
    19:00 +14°C° 0.1 mm 1 m/S 716 mmHg 92%
    20:00 +14°C° 0 mm 1 m/S 716 mmHg 93%
    21:00 +13°C° 0 mm 1 m/S 716 mmHg 94%
    22:00 +13°C° 0 mm 2 m/S 715 mmHg 95%
    23:00 +12°C° 0 mm 2 m/S 715 mmHg 95%

    28 Mai, Dienstag

    Zeit Temperatur Niederschläge Wind Luftdruck Luftfeuchtigkeit
    00:00 +12°C° 0 mm 2 m/S 715 mmHg 94%
    01:00 +10°C° 0 mm 2 m/S 714 mmHg 94%
    02:00 +11°C° 0 mm 1 m/S 714 mmHg 93%
    03:00 +11°C° 0 mm 1 m/S 714 mmHg 92%
    04:00 +11°C° 0 mm 1 m/S 714 mmHg 91%
    05:00 +13°C° 0 mm 1 m/S 714 mmHg 87%
    06:00 +13°C° 0 mm 0 m/S 714 mmHg 83%
    07:00 +15°C° 0 mm 0 m/S 714 mmHg 79%
    08:00 +18°C° 0.2 mm 1 m/S 714 mmHg 77%
    09:00 +19°C° 0.2 mm 1 m/S 715 mmHg 74%
    10:00 +20°C° 0.2 mm 1 m/S 715 mmHg 72%
    11:00 +19°C° 1.4 mm 2 m/S 714 mmHg 74%
    12:00 +19°C° 1.4 mm 2 m/S 714 mmHg 76%
    13:00 +19°C° 1.4 mm 2 m/S 714 mmHg 78%
    14:00 +19°C° 0.8 mm 3 m/S 714 mmHg 76%
    15:00 +19°C° 0.8 mm 3 m/S 714 mmHg 73%
    16:00 +19°C° 0.8 mm 4 m/S 714 mmHg 71%
    17:00 +18°C° 0.1 mm 4 m/S 715 mmHg 72%
    18:00 +15°C° 0.1 mm 4 m/S 715 mmHg 74%
    19:00 +14°C° 0.1 mm 4 m/S 715 mmHg 75%
    20:00 +14°C° 0.1 mm 4 m/S 716 mmHg 75%
    21:00 +13°C° 0.1 mm 4 m/S 716 mmHg 75%
    22:00 +12°C° 0.1 mm 4 m/S 717 mmHg 75%
    23:00 +12°C° 0.2 mm 4 m/S 717 mmHg 77%
    Mehr zeigen